Date String (YYYY-MM-DD hh:mm:ss) UTC,Instrument flags,Ambient pressure (hPa),Sample flow (lpm),Bypass flow (lpm),Sample temperature (°C),Ambient temperature (°C),ASC tube jacket temperature (°C),LED temperature (°C),Box temperature (°C),Sample RH (%),Span deviation,Mass concentration (μg/m³),Mass concentration (μg/m³),Mass concentration (μg/m³)
DateTimeUTC,F1_M11,P_M11,Q1_M11,Q2_M11,T1_M11,T2_M11,T3_M11,T4_M11,T5_M11,U1_M11,ZSPAN_M11,X0_M11,X2_M11,X1_M11
2023-04-07 20:00:00,,0831.1,5.02,0.00,24.5,23.3,00.0,32.8,26.1,09.6,0000.0,0015.84,0006.72,0005.78
2023-04-07 20:01:00,,0831.2,5.00,0.00,24.6,23.3,00.0,32.8,26.1,09.5,0000.0,0016.42,0006.97,0006.00
2023-04-07 20:02:00,,0831.1,4.99,0.00,24.6,23.3,00.0,32.8,26.1,09.6,0002.8,0017.76,0007.24,0006.21
2023-04-07 20:03:00,,0831.2,4.99,0.00,24.6,23.3,00.0,32.8,26.2,09.4,0002.7,0019.46,0007.48,0006.43
2023-04-07 20:04:00,,0831.1,4.99,0.00,24.6,23.4,00.0,32.8,26.2,09.1,0003.1,0020.07,0007.69,0006.61
2023-04-07 20:05:00,,0831.1,5.00,0.00,24.6,23.4,00.0,32.8,26.2,09.4,0000.0,0020.62,0007.86,0006.77
2023-04-07 20:06:00,,0831.1,5.01,0.00,24.6,23.4,00.0,32.8,26.2,09.4,0005.3,0020.95,0007.93,0006.87
2023-04-07 20:07:00,,0831.0,5.00,0.00,24.6,23.4,00.0,32.8,26.2,09.1,0003.0,0021.22,0008.04,0006.94
2023-04-07 20:08:00,,0830.9,4.99,0.00,24.7,23.4,00.0,32.9,26.3,09.0,0005.9,0020.73,0008.11,0007.00
2023-04-07 20:09:00,,0830.9,5.00,0.00,24.7,23.4,00.0,32.9,26.2,09.0,0006.2,0020.59,0008.20,0007.04
2023-04-07 20:10:00,,0830.9,5.00,0.00,24.7,23.4,00.0,32.9,26.3,08.8,0005.8,0020.75,0008.22,0007.07
2023-04-07 20:11:00,,0830.8,5.01,0.00,24.7,23.4,00.0,32.9,26.3,08.6,0000.0,0020.79,0008.21,0007.03
2023-04-07 20:12:00,,0830.8,5.00,0.00,24.7,23.4,00.0,32.9,26.3,08.6,0000.0,0020.94,0008.13,0006.96
2023-04-07 20:13:00,,0830.8,5.00,0.00,24.7,23.4,00.0,32.9,26.3,08.9,0000.0,0020.57,0008.01,0006.87
2023-04-07 20:14:00,,0830.7,5.00,0.00,24.7,23.5,00.0,32.9,26.3,08.5,0000.0,0018.54,0007.82,0006.73
2023-04-07 20:15:00,,0830.7,5.00,0.00,24.7,23.5,00.0,33.0,26.3,08.4,0000.0,0018.29,0007.63,0006.56
2023-04-07 20:16:00,,0830.6,5.00,0.00,24.7,23.5,00.0,33.0,26.3,08.2,0000.0,0017.17,0007.44,0006.42
2023-04-07 20:17:00,,0830.7,5.00,0.00,24.7,23.5,00.0,33.0,26.3,08.3,0000.0,0016.12,0007.37,0006.34
2023-04-07 20:18:00,,0830.6,5.01,0.00,24.7,23.5,00.0,33.0,26.3,07.9,0000.0,0016.32,0007.28,0006.26
2023-04-07 20:19:00,,0830.6,5.00,0.00,24.8,23.5,00.0,33.0,26.4,08.1,0000.0,0016.39,0007.17,0006.18
2023-04-07 20:20:00,,0830.6,5.01,0.00,24.8,23.5,00.0,33.0,26.4,08.1,0000.0,0016.03,0007.03,0006.11
2023-04-07 20:21:00,,0830.6,5.00,0.00,24.8,23.5,00.0,33.0,26.4,08.0,0000.0,0016.08,0006.95,0006.03
2023-04-07 20:22:00,,0830.7,5.00,0.00,24.8,23.5,00.0,33.0,26.4,07.7,0000.0,0016.93,0006.82,0005.92
2023-04-07 20:23:00,,0830.6,5.00,0.00,24.8,23.6,00.0,33.0,26.4,07.9,0000.0,0015.94,0006.68,0005.82
2023-04-07 20:24:00,,0830.6,5.00,0.00,24.8,23.6,00.0,33.0,26.4,07.8,0000.0,0015.03,0006.58,0005.75
2023-04-07 20:25:00,,0830.6,4.99,0.00,24.8,23.6,00.0,33.1,26.4,08.4,0000.0,0014.93,0006.52,0005.68
2023-04-07 20:26:00,,0830.6,5.00,0.00,24.9,23.6,00.0,33.1,26.4,07.9,0000.0,0015.00,0006.54,0005.67
2023-04-07 20:27:00,,0830.6,4.99,0.00,24.9,23.6,00.0,33.1,26.5,07.9,0000.0,0015.42,0006.58,0005.70
2023-04-07 20:28:00,,0830.6,4.99,0.00,24.9,23.6,00.0,33.1,26.5,08.3,0000.0,0015.97,0006.60,0005.70
2023-04-07 20:29:00,,0830.6,5.02,0.00,24.9,23.6,00.0,33.1,26.5,08.1,0000.0,0015.49,0006.55,0005.66
2023-04-07 20:30:00,,0830.6,5.00,0.00,24.9,23.6,00.0,33.1,26.5,07.9,0000.0,0015.38,0006.59,0005.67
2023-04-07 20:31:00,,0830.6,5.00,0.00,24.9,23.6,00.0,33.1,26.5,08.1,0000.0,0015.34,0006.61,0005.64
2023-04-07 20:32:00,,0830.7,5.00,0.00,24.9,23.6,00.0,33.1,26.5,08.0,0000.0,0015.52,0006.62,0005.64
2023-04-07 20:33:00,,0830.7,5.00,0.00,24.9,23.6,00.0,33.1,26.5,07.9,0000.0,0014.35,0006.66,0005.68
2023-04-07 20:34:00,,0830.6,4.99,0.00,24.9,23.6,00.0,33.2,26.5,07.8,0000.0,0014.70,0006.68,0005.71
2023-04-07 20:35:00,,0830.6,5.01,0.00,24.9,23.6,00.0,33.2,26.5,07.9,0000.0,0014.66,0006.68,0005.74
2023-04-07 20:36:00,,0830.6,5.01,0.00,25.0,23.6,00.0,33.2,26.5,07.9,0000.0,0015.03,0006.76,0005.77
2023-04-07 20:37:00,,0830.6,5.01,0.00,25.0,23.7,00.0,33.2,26.5,07.8,0000.0,0015.74,0006.81,0005.81
2023-04-07 20:38:00,,0830.5,5.00,0.00,25.0,23.7,00.0,33.2,26.5,08.2,0000.0,0015.72,0006.84,0005.83
2023-04-07 20:39:00,,0830.6,4.99,0.00,25.0,23.7,00.0,33.2,26.5,08.0,0000.0,0015.21,0006.83,0005.83
2023-04-07 20:40:00,,0830.5,4.99,0.00,25.0,23.7,00.0,33.2,26.6,07.9,0000.0,0015.05,0006.86,0005.84
2023-04-07 20:41:00,,0830.5,5.01,0.00,25.0,23.8,00.0,33.2,26.6,08.1,0000.0,0014.89,0006.81,0005.83
2023-04-07 20:42:00,,0830.4,5.00,0.00,25.0,23.8,00.0,33.2,26.6,08.2,0000.0,0015.50,0006.78,0005.82
2023-04-07 20:43:00,,0830.5,5.01,0.00,25.0,23.8,00.0,33.3,26.6,08.0,0000.0,0015.46,0006.77,0005.84
2023-04-07 20:44:00,,0830.4,5.00,0.00,25.0,23.8,00.0,33.3,26.6,08.1,0000.0,0015.91,0006.81,0005.88
2023-04-07 20:45:00,,0830.4,4.99,0.00,25.1,23.8,00.0,33.3,26.6,08.1,0000.0,0016.27,0006.86,0005.91
2023-04-07 20:46:00,,0830.4,5.00,0.00,25.1,23.8,00.0,33.3,26.7,08.1,0000.0,0016.45,0006.91,0005.95
2023-04-07 20:47:00,,0830.4,5.01,0.00,25.1,23.8,00.0,33.3,26.7,08.1,0000.0,0016.38,0006.93,0006.00
2023-04-07 20:48:00,,0830.3,5.01,0.00,25.1,23.8,00.0,33.3,26.7,07.9,0000.0,0016.14,0006.94,0006.03
2023-04-07 20:49:00,,0830.3,4.99,0.00,25.1,23.8,00.0,33.3,26.7,08.1,0000.0,0015.59,0006.94,0006.05
2023-04-07 20:50:00,,0830.4,5.01,0.00,25.1,23.8,00.0,33.3,26.7,08.3,0000.0,0016.20,0007.00,0006.09
2023-04-07 20:51:00,,0830.4,5.01,0.00,25.1,23.8,00.0,33.3,26.7,07.9,0000.0,0016.68,0007.05,0006.16
2023-04-07 20:52:00,,0830.3,4.99,0.00,25.1,23.8,00.0,33.4,26.7,08.2,0000.0,0017.01,0007.07,0006.21
2023-04-07 20:53:00,,0830.3,5.00,0.00,25.1,23.8,00.0,33.4,26.7,07.8,0000.0,0016.30,0007.16,0006.24
2023-04-07 20:54:00,,0830.2,5.01,0.00,25.1,23.8,00.0,33.4,26.7,07.8,0000.0,0016.25,0007.22,0006.30
2023-04-07 20:55:00,,0830.3,5.01,0.00,25.1,23.8,00.0,33.4,26.7,08.1,0000.0,0015.75,0007.25,0006.34
2023-04-07 20:56:00,,0830.3,5.00,0.00,25.1,23.8,00.0,33.4,26.7,08.1,0000.0,0014.97,0007.29,0006.39
2023-04-07 20:57:00,,0830.3,5.01,0.00,25.2,23.9,00.0,33.4,26.7,08.1,0000.0,0014.59,0007.30,0006.39
2023-04-07 20:58:00,,0830.3,4.99,0.00,25.2,23.9,00.0,33.4,26.8,08.0,0005.5,0014.51,0007.28,0006.37
2023-04-07 20:59:00,,0830.3,4.99,0.00,25.2,23.9,00.0,33.4,26.8,07.9,0005.5,0014.16,0007.30,0006.35
